This is the latest recevied weather packets stored in our database for station/object N1UNH. If no packets are shown the sender has not sent any weather packets the latest 10 day(s).
| Time | Temp. | Humidity | Pressure | Rain* | Wind** | Luminosity | Snow |
|---|---|---|---|---|---|---|---|
| 1778085879 | 20.56° C | 62% | 1012.2 hPa | 0 mm | - | 114 W/m² | - |
| 1778085577 | 20.56° C | 61% | 1012.2 hPa | 0 mm | - | 124 W/m² | - |
| 1778085272 | 20.56° C | 62% | 1012.4 hPa | 0 mm | - | 126 W/m² | - |
| 1778084967 | 20.56° C | 61% | 1012.3 hPa | 0 mm | - | 131 W/m² | - |
| 1778084665 | 20.56° C | 61% | 1012.5 hPa | 0 mm | - | 184 W/m² | - |
| 1778084362 | 20.56° C | 62% | 1012.4 hPa | 0 mm | - | 201 W/m² | - |
| 1778084060 | 20.56° C | 63% | 1012.3 hPa | 0 mm | - | 161 W/m² | - |
| 1778083757 | 20° C | 63% | 1012.3 hPa | 0 mm | - | 268 W/m² | - |
| 1778083454 | 20° C | 65% | 1012.6 hPa | 0 mm | - | 203 W/m² | - |
| 1778083152 | 20° C | 64% | 1012.8 hPa | 0 mm | - | 193 W/m² | - |
| 1778082849 | 20° C | 66% | 1012.9 hPa | 0 mm | - | 101 W/m² | - |
| 1778081725 | 20° C | 64% | 1013.4 hPa | 0 mm | - | 85 W/m² | - |
| 1778081422 | 20° C | 63% | 1013.3 hPa | 0 mm | - | 80 W/m² | - |
| 1778081119 | 20° C | 64% | 1013.4 hPa | 0 mm | - | 106 W/m² | - |
| 1778080818 | 19.44° C | 64% | 1013.6 hPa | 0 mm | - | 107 W/m² | - |
| 1778080515 | 19.44° C | 68% | 1013.4 hPa | 0 mm | - | 105 W/m² | - |
| 1778080212 | 18.89° C | 73% | 1013.3 hPa | 0 mm | - | 119 W/m² | - |
| 1778079908 | 19.44° C | 71% | 1013.6 hPa | 0 mm | - | 66 W/m² | - |
| 1778079605 | 19.44° C | 72% | 1013.5 hPa | 0 mm | - | 65 W/m² | - |
| 1778079301 | 19.44° C | 70% | 1013.3 hPa | 0 mm | - | 119 W/m² | - |
| 1778078999 | 19.44° C | 70% | 1013.4 hPa | 0 mm | - | 95 W/m² | - |
| 1778078696 | 20° C | 69% | 1013.4 hPa | 0 mm | - | 90 W/m² | - |
| 1778078394 | 20° C | 67% | 1013.6 hPa | 0 mm | - | 150 W/m² | - |
| 1778078090 | 20° C | 69% | 1013.3 hPa | 0 mm | - | 209 W/m² | - |
| 1778077789 | 20° C | 68% | 1013.4 hPa | 0 mm | - | 217 W/m² | - |
* Rain latest hour (hover to see other rain measurements)
** Current wind speed in m/s (hover to see current wind gust speed)